DAL1556 KBOS-KTPA

Flight info

Callsign DAL1556
Flight time N/A
Altitude 40000
Route PATSS7 PATSS NELIE BIZEX Q75 TEUFL BAAMF DADES2
Aircraft A359/H-SDE2E3GHIJ3J4J5LM1ORWXY/LB1D1

Departure

Time 2026-05-06 23:37
Airport Boston Logan International Airport (KBOS)

Arrival

Time N/A
Airport Tampa International Airport (KTPA)
Time Latitude Longitude Altitude Speed Heading
2026-05-06 22:36 42.37144 -71.02088 32 ft 0 kts 176°
2026-05-06 23:23 42.37152 -71.02088 32 ft 3 kts 176°
2026-05-06 23:24 42.37171 -71.02090 30 ft 3 kts 176°
2026-05-06 23:24 42.37189 -71.02091 31 ft 3 kts 171°
2026-05-06 23:24 42.37207 -71.02101 30 ft 3 kts 129°
2026-05-06 23:24 42.37216 -71.02119 30 ft 0 kts 100°
2026-05-06 23:29 42.37214 -71.02100 30 ft 7 kts 93°
2026-05-06 23:29 42.37232 -71.02012 32 ft 11 kts 78°
2026-05-06 23:30 42.37268 -71.01911 32 ft 13 kts 44°
2026-05-06 23:30 42.37284 -71.01818 32 ft 10 kts 117°
2026-05-06 23:30 42.37238 -71.01746 32 ft 11 kts 135°
2026-05-06 23:30 42.37174 -71.01661 32 ft 14 kts 135°
2026-05-06 23:31 42.37100 -71.01560 32 ft 16 kts 135°
2026-05-06 23:31 42.37015 -71.01448 32 ft 18 kts 135°
2026-05-06 23:31 42.36925 -71.01321 32 ft 18 kts 121°
2026-05-06 23:31 42.36939 -71.01183 32 ft 15 kts 64°
2026-05-06 23:32 42.37017 -71.01093 32 ft 16 kts 26°
2026-05-06 23:32 42.37123 -71.01022 32 ft 19 kts 26°
2026-05-06 23:32 42.37249 -71.00941 32 ft 22 kts 25°
2026-05-06 23:32 42.37301 -71.00910 32 ft 0 kts 22°
2026-05-06 23:33 42.37302 -71.00910 32 ft 0 kts 22°
2026-05-06 23:34 42.37303 -71.00909 32 ft 2 kts 22°
2026-05-06 23:35 42.37349 -71.00885 32 ft 13 kts 20°
2026-05-06 23:35 42.37453 -71.00835 32 ft 18 kts 19°
2026-05-06 23:35 42.37581 -71.00774 32 ft 21 kts 19°
2026-05-06 23:35 42.37728 -71.00703 32 ft 24 kts 20°
2026-05-06 23:36 42.37807 -71.00658 32 ft 7 kts 36°
2026-05-06 23:36 42.37831 -71.00608 32 ft 6 kts 82°
2026-05-06 23:36 42.37817 -71.00520 32 ft 12 kts 118°
2026-05-06 23:36 42.37742 -71.00502 32 ft 16 kts 195°
2026-05-06 23:37 42.37469 -71.00621 34 ft 79 kts 200°
2026-05-06 23:37 42.36662 -71.01015 92 ft 161 kts 199°
2026-05-06 23:37 42.35503 -71.01547 940 ft 186 kts 197°
2026-05-06 23:37 42.34110 -71.01545 2000 ft 223 kts 167°
2026-05-06 23:38 42.32842 -71.00242 3181 ft 235 kts 136°
2026-05-06 23:38 42.31878 -70.98466 4160 ft 236 kts 130°
2026-05-06 23:38 42.31184 -70.96405 4738 ft 251 kts 105°
2026-05-06 23:38 42.31233 -70.93935 4960 ft 282 kts 82°
2026-05-06 23:39 42.31635 -70.91220 4978 ft 301 kts 78°
2026-05-06 23:39 42.32087 -70.88450 4983 ft 303 kts 78°
2026-05-06 23:39 42.32528 -70.85660 4990 ft 304 kts 79°
2026-05-06 23:39 42.32941 -70.82867 5052 ft 303 kts 81°
2026-05-06 23:40 42.32993 -70.80040 5486 ft 300 kts 104°
2026-05-06 23:40 42.32270 -70.77439 6357 ft 295 kts 123°
2026-05-06 23:40 42.31286 -70.75003 7257 ft 295 kts 127°
2026-05-06 23:40 42.29972 -70.72926 8110 ft 288 kts 150°
2026-05-06 23:41 42.28219 -70.71795 9043 ft 275 kts 175°
2026-05-06 23:41 42.26360 -70.71701 9957 ft 265 kts 195°
2026-05-06 23:41 42.24527 -70.72097 10738 ft 270 kts 197°
2026-05-06 23:41 42.22656 -70.72571 11570 ft 274 kts 198°
2026-05-06 23:42 42.20864 -70.73374 12501 ft 269 kts 212°
2026-05-06 23:42 42.19388 -70.74875 13433 ft 265 kts 229°
2026-05-06 23:42 42.18360 -70.76992 13926 ft 281 kts 246°
2026-05-06 23:42 42.17842 -70.79594 14262 ft 301 kts 256°
2026-05-06 23:43 42.17473 -70.82463 14654 ft 317 kts 257°
2026-05-06 23:43 42.17102 -70.85425 15301 ft 323 kts 257°
2026-05-06 23:43 42.16713 -70.88428 16047 ft 328 kts 257°
2026-05-06 23:43 42.16310 -70.91474 16781 ft 332 kts 257°
2026-05-06 23:44 42.15896 -70.94553 17545 ft 335 kts 256°
2026-05-06 23:44 42.15563 -70.97679 18276 ft 339 kts 260°
2026-05-06 23:44 42.15307 -71.00860 18911 ft 343 kts 261°
2026-05-06 23:44 42.15046 -71.04075 19549 ft 347 kts 261°
2026-05-06 23:45 42.14772 -71.07324 20217 ft 350 kts 261°
2026-05-06 23:45 42.14487 -71.10597 20904 ft 353 kts 261°
2026-05-06 23:45 42.14195 -71.13903 21611 ft 357 kts 261°
2026-05-06 23:45 42.13897 -71.17242 22308 ft 360 kts 262°
2026-05-06 23:46 42.13594 -71.20606 22980 ft 364 kts 262°
2026-05-06 23:46 42.13286 -71.24007 23640 ft 367 kts 262°
2026-05-06 23:46 42.12976 -71.27423 24274 ft 368 kts 262°
2026-05-06 23:46 42.12664 -71.30841 24965 ft 368 kts 262°
2026-05-06 23:47 42.12351 -71.34265 25645 ft 368 kts 262°
2026-05-06 23:47 42.12036 -71.37684 26304 ft 369 kts 262°
2026-05-06 23:47 42.11723 -71.41076 26927 ft 370 kts 262°
2026-05-06 23:47 42.11404 -71.44514 27566 ft 371 kts 262°
2026-05-06 23:48 42.11084 -71.47966 28169 ft 372 kts 262°
2026-05-06 23:48 42.10762 -71.51418 28830 ft 372 kts 262°
2026-05-06 23:48 42.10437 -71.54886 29416 ft 374 kts 262°
2026-05-06 23:48 42.10111 -71.58362 30023 ft 375 kts 262°
2026-05-06 23:49 42.09783 -71.61848 30492 ft 377 kts 262°
2026-05-06 23:49 42.09451 -71.65363 30884 ft 380 kts 262°
2026-05-06 23:49 42.09115 -71.68900 31252 ft 383 kts 262°
2026-05-06 23:49 42.08774 -71.72462 31627 ft 385 kts 262°
2026-05-06 23:50 42.08337 -71.76032 31994 ft 387 kts 259°
2026-05-06 23:50 42.07231 -71.83173 32681 ft 392 kts 258°
2026-05-06 23:50 42.06653 -71.86772 33010 ft 394 kts 259°
2026-05-06 23:51 42.06082 -71.90385 33375 ft 395 kts 259°
2026-05-06 23:51 42.05524 -71.93995 33972 ft 391 kts 259°
2026-05-06 23:51 42.04982 -71.97567 34453 ft 388 kts 260°
2026-05-06 23:51 42.04447 -72.01125 34784 ft 388 kts 260°
2026-05-06 23:52 42.03914 -72.04688 35115 ft 388 kts 260°
2026-05-06 23:52 42.03383 -72.08244 35457 ft 388 kts 260°
2026-05-06 23:52 42.02849 -72.11802 35788 ft 387 kts 260°
2026-05-06 23:52 42.02316 -72.15344 36131 ft 386 kts 260°
2026-05-06 23:53 42.01783 -72.18875 36458 ft 385 kts 260°
2026-05-06 23:53 42.01250 -72.22391 36799 ft 383 kts 260°
2026-05-06 23:53 42.00718 -72.25899 37173 ft 383 kts 260°
2026-05-06 23:53 42.00186 -72.29396 37570 ft 380 kts 260°
2026-05-06 23:54 41.99662 -72.32829 37920 ft 379 kts 260°
2026-05-06 23:54 41.99126 -72.36339 38219 ft 379 kts 260°
2026-05-06 23:54 41.98602 -72.39765 38482 ft 379 kts 260°
2026-05-06 23:54 41.98069 -72.43236 38662 ft 380 kts 260°
2026-05-06 23:55 41.97534 -72.46717 38813 ft 382 kts 260°
2026-05-06 23:55 41.96995 -72.50222 38945 ft 383 kts 260°
2026-05-06 23:55 41.96453 -72.53732 39084 ft 384 kts 260°
2026-05-06 23:55 41.95908 -72.57251 39227 ft 386 kts 260°
2026-05-06 23:56 41.95351 -72.60783 39404 ft 387 kts 259°
2026-05-06 23:56 41.94612 -72.64264 39619 ft 388 kts 254°
2026-05-06 23:56 41.93592 -72.67638 39744 ft 393 kts 249°
2026-05-06 23:56 41.92250 -72.70872 39813 ft 400 kts 243°
2026-05-06 23:57 41.88704 -72.76725 39807 ft 407 kts 235°
2026-05-06 23:57 41.84812 -72.82262 39814 ft 408 kts 234°
2026-05-06 23:58 41.80887 -72.87760 39815 ft 408 kts 234°
2026-05-06 23:58 41.76982 -72.93273 39817 ft 408 kts 234°
2026-05-06 23:59 41.73094 -72.98786 39821 ft 406 kts 235°
2026-05-06 23:59 41.69219 -73.04275 39837 ft 405 kts 235°
2026-05-07 00:00 41.65349 -73.09751 39835 ft 405 kts 235°
2026-05-07 00:00 41.62129 -73.14298 39834 ft 405 kts 235°
2026-05-07 00:01 41.58255 -73.19758 39836 ft 405 kts 235°
2026-05-07 00:01 41.53748 -73.26099 39833 ft 405 kts 235°
2026-05-07 00:02 41.49865 -73.31549 39838 ft 405 kts 235°
2026-05-07 00:02 41.46621 -73.36091 39830 ft 403 kts 235°
2026-05-07 00:03 41.42777 -73.41467 39832 ft 402 kts 235°
2026-05-07 00:03 41.38915 -73.46860 39823 ft 402 kts 236°
2026-05-07 00:04 41.35053 -73.52244 39831 ft 403 kts 236°
2026-05-07 00:04 41.31183 -73.57630 39832 ft 403 kts 236°
2026-05-07 00:05 41.27309 -73.63010 39824 ft 403 kts 235°
2026-05-07 00:05 41.23436 -73.68378 39776 ft 401 kts 235°
2026-05-07 00:06 41.19576 -73.73715 39829 ft 400 kts 236°
2026-05-07 00:06 41.15740 -73.79067 39829 ft 397 kts 238°
2026-05-07 00:07 41.12262 -73.84698 39830 ft 394 kts 240°
2026-05-07 00:07 41.08865 -73.90393 39826 ft 393 kts 240°
2026-05-07 00:08 41.05479 -73.96098 39807 ft 394 kts 240°
2026-05-07 00:08 41.02085 -74.01794 39826 ft 393 kts 240°
2026-05-07 00:09 40.98693 -74.07462 39829 ft 392 kts 240°
2026-05-07 00:09 40.95407 -74.13004 39880 ft 365 kts 241°
2026-05-07 00:10 40.93886 -74.15566 39869 ft 342 kts 243°
2026-05-07 00:10 40.92462 -74.17958 39864 ft 320 kts 244°
2026-05-07 00:10 40.91122 -74.20201 39847 ft 305 kts 244°
2026-05-07 00:10 40.89821 -74.22396 39848 ft 302 kts 244°
2026-05-07 00:11 40.88530 -74.24583 39830 ft 300 kts 245°
2026-05-07 00:11 40.87246 -74.26748 39841 ft 298 kts 245°
2026-05-07 00:11 40.84652 -74.31110 39831 ft 305 kts 245°
2026-05-07 00:12 40.81986 -74.35555 39840 ft 312 kts 244°